Location: Colonia Mina de C?rbuni
(46.1667°N, 22.7167°E)
Time: 17:10:46
(UTC+00:00)

Okean 1-7 Rocket - Pass Details

Date: 04 February 2023
Orbit: 615 x 648 km, 82.5° (Epoch: 29 March)

Event Time Altitude Azimuth Distance (km) Brightness Sun altitude
Rises 18:09:08 0° 197° (SSW) 2,885 7.1 -26.4°
Reaches altitude 10° 18:11:22 10° 201° (SSW) 1,988 6.3 -26.8°
Enters shadow 18:15:11 55° 247° (WSW) 753 4.1 -27.4°
